When you browse on this site, cookies collect data to enhance your experience and personalize the content and advertising you see.
Visit our Privacy Policy to learn more. By continuing to use the site, you agree to this use of cookies and data.
  • In Czech Republic
  • List of Countries
  • For 7 days
  • Water Temperature
  • Weather Map
  • Weather Widgets
  • user-avatar
    Login

    Hourly Weather Salta

    Today, 17 February, Monday

    Time Temperature Precipitation Wind Pressure Humidity
    00:00 +21°C° 0 mm 0 mps 647 mmHg 87%
    01:00 +20°C° 0 mm 0 mps 647 mmHg 87%
    02:00 +20°C° 0 mm 0 mps 647 mmHg 86%
    03:00 +20°C° 0.1 mm 0 mps 647 mmHg 88%
    04:00 +20°C° 0.1 mm 0 mps 647 mmHg 89%
    05:00 +20°C° 0.1 mm 0 mps 647 mmHg 90%
    06:00 +20°C° 0 mm 0 mps 647 mmHg 89%
    07:00 +21°C° 0 mm 0 mps 647 mmHg 88%
    08:00 +22°C° 0 mm 0 mps 648 mmHg 87%
    09:00 +26°C° 0.1 mm 1 mps 648 mmHg 80%
    10:00 +28°C° 0.1 mm 1 mps 648 mmHg 73%
    11:00 +30°C° 0.1 mm 1 mps 649 mmHg 66%
    12:00 +30°C° 0.1 mm 1 mps 648 mmHg 64%
    13:00 +31°C° 0.1 mm 2 mps 648 mmHg 62%
    14:00 +31°C° 0.1 mm 2 mps 647 mmHg 60%
    15:00 +31°C° 0.1 mm 2 mps 647 mmHg 62%
    16:00 +31°C° 0.1 mm 2 mps 646 mmHg 63%
    17:00 +30°C° 0.1 mm 2 mps 646 mmHg 65%
    18:00 +28°C° 0.1 mm 1 mps 646 mmHg 71%
    19:00 +27°C° 0.1 mm 1 mps 646 mmHg 78%
    20:00 +25°C° 0.1 mm 1 mps 646 mmHg 84%
    21:00 +25°C° 0.2 mm 1 mps 647 mmHg 83%
    22:00 +24°C° 0.2 mm 1 mps 648 mmHg 83%
    23:00 +24°C° 0.2 mm 1 mps 649 mmHg 82%

    Tomorrow, 18 February, Tuesday

    Time Temperature Precipitation Wind Pressure Humidity
    00:00 +24°C° 0 mm 1 mps 648 mmHg 81%
    01:00 +24°C° 0 mm 1 mps 648 mmHg 80%
    02:00 +24°C° 0 mm 1 mps 648 mmHg 79%
    03:00 +23°C° 0.1 mm 1 mps 648 mmHg 79%
    04:00 +23°C° 0.1 mm 1 mps 649 mmHg 78%
    05:00 +23°C° 0.1 mm 1 mps 649 mmHg 78%
    06:00 +23°C° 2.6 mm 2 mps 650 mmHg 82%
    07:00 +23°C° 2.6 mm 2 mps 651 mmHg 86%
    08:00 +24°C° 2.6 mm 2 mps 652 mmHg 90%
    09:00 +24°C° 1 mm 2 mps 653 mmHg 89%
    10:00 +23°C° 1 mm 2 mps 653 mmHg 88%
    11:00 +23°C° 1 mm 2 mps 653 mmHg 87%
    12:00 +24°C° 0.7 mm 2 mps 653 mmHg 84%
    13:00 +25°C° 0.7 mm 2 mps 653 mmHg 81%
    14:00 +25°C° 0.7 mm 2 mps 653 mmHg 78%
    15:00 +24°C° 0.2 mm 2 mps 652 mmHg 80%
    16:00 +24°C° 0.2 mm 2 mps 651 mmHg 81%
    17:00 +23°C° 0.2 mm 2 mps 650 mmHg 83%
    18:00 +21°C° 0.1 mm 2 mps 651 mmHg 83%
    19:00 +22°C° 0.1 mm 1 mps 651 mmHg 84%
    20:00 +21°C° 0.1 mm 1 mps 651 mmHg 84%
    21:00 +21°C° 0 mm 1 mps 651 mmHg 83%
    22:00 +20°C° 0 mm 1 mps 652 mmHg 82%
    23:00 +20°C° 0 mm 1 mps 652 mmHg 81%

    Day after tomorrow, 19 February, Wednesday

    Time Temperature Precipitation Wind Pressure Humidity
    00:00 +20°C° 0 mm 1 mps 652 mmHg 82%
    01:00 +17°C° 0 mm 0 mps 651 mmHg 83%
    02:00 +17°C° 0 mm 0 mps 650 mmHg 84%
    03:00 +17°C° 0 mm 0 mps 650 mmHg 84%
    04:00 +17°C° 0 mm 0 mps 650 mmHg 85%
    05:00 +17°C° 0 mm 0 mps 649 mmHg 85%
    06:00 +18°C° 0 mm 0 mps 650 mmHg 81%
    07:00 +19°C° 0 mm 0 mps 650 mmHg 78%
    08:00 +20°C° 0 mm 0 mps 651 mmHg 75%
    09:00 +22°C° 0 mm 0 mps 651 mmHg 70%
    10:00 +25°C° 0 mm 1 mps 651 mmHg 66%
    11:00 +27°C° 0 mm 1 mps 651 mmHg 62%
    12:00 +27°C° 0 mm 2 mps 650 mmHg 62%
    13:00 +27°C° 0 mm 2 mps 650 mmHg 63%
    14:00 +28°C° 0 mm 2 mps 649 mmHg 63%
    15:00 +27°C° 0.1 mm 2 mps 649 mmHg 68%
    16:00 +26°C° 0.1 mm 1 mps 648 mmHg 72%
    17:00 +26°C° 0.1 mm 1 mps 647 mmHg 77%
    18:00 +25°C° 0.1 mm 1 mps 648 mmHg 80%
    19:00 +22°C° 0.1 mm 0 mps 648 mmHg 83%
    20:00 +21°C° 0.1 mm 0 mps 648 mmHg 86%
    21:00 +21°C° 0 mm 0 mps 649 mmHg 87%
    22:00 +20°C° 0 mm 0 mps 650 mmHg 88%
    23:00 +20°C° 0 mm 0 mps 650 mmHg 89%

    20 February, Thursday

    Time Temperature Precipitation Wind Pressure Humidity
    00:00 +20°C° 0 mm 0 mps 650 mmHg 90%
    01:00 +20°C° 0 mm 0 mps 650 mmHg 90%
    02:00 +20°C° 0 mm 0 mps 650 mmHg 91%
    03:00 +19°C° 0 mm 0 mps 650 mmHg 91%
    04:00 +19°C° 0 mm 0 mps 650 mmHg 91%
    05:00 +21°C° 0 mm 1 mps 650 mmHg 92%
    06:00 +22°C° 0 mm 1 mps 651 mmHg 89%
    07:00 +23°C° 0 mm 1 mps 651 mmHg 86%
    08:00 +24°C° 0 mm 1 mps 652 mmHg 83%
    09:00 +25°C° 0.9 mm 1 mps 653 mmHg 80%
    10:00 +26°C° 0.9 mm 1 mps 653 mmHg 77%
    11:00 +27°C° 0.9 mm 2 mps 653 mmHg 74%
    12:00 +27°C° 1.5 mm 2 mps 653 mmHg 75%
    13:00 +27°C° 1.5 mm 2 mps 653 mmHg 76%
    14:00 +27°C° 1.5 mm 2 mps 653 mmHg 76%
    15:00 +26°C° 1.7 mm 2 mps 652 mmHg 80%
    16:00 +26°C° 1.7 mm 2 mps 651 mmHg 84%
    17:00 +25°C° 1.7 mm 2 mps 651 mmHg 87%
    18:00 +24°C° 1.4 mm 2 mps 651 mmHg 89%
    19:00 +23°C° 1.4 mm 1 mps 652 mmHg 91%
    20:00 +22°C° 1.4 mm 1 mps 652 mmHg 93%
    21:00 +22°C° 2.4 mm 1 mps 653 mmHg 94%
    22:00 +21°C° 2.4 mm 1 mps 653 mmHg 94%
    23:00 +21°C° 2.4 mm 1 mps 654 mmHg 94%

    21 February, Friday

    Time Temperature Precipitation Wind Pressure Humidity
    00:00 +21°C° 2 mm 1 mps 654 mmHg 94%
    01:00 +19°C° 2 mm 2 mps 654 mmHg 94%
    02:00 +19°C° 2 mm 2 mps 654 mmHg 94%
    09:00 +19°C° 0 mm 1 mps 655 mmHg 89%
    10:00 +19°C° 0 mm 1 mps 655 mmHg 87%
    11:00 +20°C° 0 mm 1 mps 655 mmHg 86%
    12:00 +21°C° 0 mm 1 mps 655 mmHg 80%
    13:00 +22°C° 0 mm 1 mps 655 mmHg 74%
    14:00 +24°C° 0 mm 2 mps 655 mmHg 68%
    15:00 +24°C° 0 mm 1 mps 654 mmHg 68%
    16:00 +24°C° 0 mm 1 mps 654 mmHg 68%
    17:00 +24°C° 0 mm 1 mps 653 mmHg 68%
    18:00 +22°C° 0.1 mm 1 mps 653 mmHg 74%
    19:00 +21°C° 0.1 mm 1 mps 653 mmHg 80%
    20:00 +20°C° 0.1 mm 1 mps 653 mmHg 86%
    21:00 +20°C° 0.2 mm 1 mps 653 mmHg 89%
    22:00 +19°C° 0.2 mm 1 mps 654 mmHg 91%
    23:00 +19°C° 0.2 mm 1 mps 654 mmHg 93%

    22 February, Saturday

    Time Temperature Precipitation Wind Pressure Humidity
    00:00 +19°C° 0.1 mm 1 mps 654 mmHg 94%
    01:00 +19°C° 0.1 mm 1 mps 653 mmHg 94%
    02:00 +18°C° 0.1 mm 1 mps 653 mmHg 95%
    03:00 +18°C° 0 mm 1 mps 653 mmHg 94%
    04:00 +18°C° 0 mm 1 mps 653 mmHg 93%
    05:00 +18°C° 0 mm 1 mps 652 mmHg 92%
    06:00 +16°C° 0 mm 0 mps 653 mmHg 91%
    07:00 +16°C° 0 mm 0 mps 653 mmHg 91%
    08:00 +16°C° 0 mm 0 mps 653 mmHg 90%
    09:00 +19°C° 0 mm 1 mps 653 mmHg 85%
    10:00 +20°C° 0 mm 1 mps 653 mmHg 81%
    11:00 +21°C° 0 mm 1 mps 653 mmHg 76%
    12:00 +22°C° 0 mm 1 mps 653 mmHg 74%
    13:00 +22°C° 0 mm 1 mps 652 mmHg 73%
    14:00 +23°C° 0 mm 1 mps 652 mmHg 71%
    15:00 +23°C° 0 mm 1 mps 651 mmHg 73%
    16:00 +22°C° 0 mm 1 mps 651 mmHg 75%
    17:00 +20°C° 0 mm 0 mps 650 mmHg 77%
    18:00 +19°C° 0 mm 0 mps 650 mmHg 79%
    19:00 +21°C° 0 mm 1 mps 650 mmHg 81%
    20:00 +20°C° 0 mm 1 mps 650 mmHg 83%
    21:00 +20°C° 0 mm 1 mps 651 mmHg 83%
    22:00 +17°C° 0 mm 0 mps 651 mmHg 84%
    23:00 +17°C° 0 mm 0 mps 652 mmHg 84%
    Show more